Location: Ottawa
(45.4170°N, 75.7000°W)
Time: 21:03:19
(UTC-04:00)

ISS - Pass Details

Date: 29 September 2020
Orbit: 417 x 420 km, 51.6° (Epoch: 25 October)

Event Time Altitude Azimuth Distance (km) Brightness Sun altitude
Rises 19:40:44 0° 293° (WNW) 2,369 1.7 -10.5°
Reaches altitude 10° 19:43:00 10° 305° (NW) 1,504 0.1 -10.9°
Maximum altitude 19:46:01 29° 8° (N) 800 -2.4 -11.4°
Enters shadow 19:48:15 15° 63° (ENE) 1,239 -1.9 -11.8°
